�N����,����,�~����,�C��,���x,�C��,����,���ϕ���,�ő�u�ԕ���,�ő厞����,���˗�,�I�_���x,�n�����x,�ő啗���N��,DTYPE
"23/09/07","00:10",0.0,22.9,91.1,1002.2,308.4,0.7,1.8,344.2,0.00,21.4,25.2,"00:02:48",1
"23/09/07","00:20",0.0,22.9,91.3,1002.2,307.0,1.0,1.7,307.8,0.00,21.4,25.2,"00:17:04",1
"23/09/07","00:30",0.0,22.8,91.4,1001.9,312.1,1.3,2.9,355.0,0.00,21.4,25.1,"00:28:00",1
"23/09/07","00:40",0.0,23.0,91.2,1002.2,312.3,0.7,1.6,310.4,0.00,21.5,25.2,"00:30:32",1
"23/09/07","00:50",0.0,22.8,91.2,1001.9,310.9,1.1,2.0,342.6,0.00,21.3,25.2,"00:40:48",1
"23/09/07","01:00",0.0,22.6,91.2,1002.2,303.2,0.5,1.2,304.4,0.00,21.1,25.3,"00:57:12",1
"23/09/07","01:10",0.0,22.5,91.3,1002.2,299.2,0.7,1.9,262.2,0.00,21.1,25.2,"01:01:28",1
"23/09/07","01:20",0.0,22.4,91.2,1002.2,295.6,0.6,1.3,321.2,0.00,20.9,25.1,"01:14:08",1
"23/09/07","01:30",0.0,22.4,91.1,1002.2,292.7,0.8,1.6,346.7,0.00,20.9,25.1,"01:28:32",1
"23/09/07","01:40",0.0,22.5,91.0,1002.2,332.3,1.1,1.8,341.2,0.00,21.0,25.1,"01:31:44",1
"23/09/07","01:50",0.0,22.3,90.9,1002.4,331.0,1.1,2.0,339.0,0.00,20.8,25.0,"01:47:04",1
"23/09/07","02:00",0.0,22.2,91.0,1002.4,299.8,0.8,2.1,337.3,0.00,20.7,25.1,"01:52:08",1
"23/09/07","02:10",0.0,22.0,91.1,1001.9,251.6,0.7,1.8,251.8,0.00,20.5,25.1,"02:09:44",1
"23/09/07","02:20",0.0,22.2,91.0,1002.2,245.3,0.8,2.0,356.5,0.00,20.7,24.8,"02:16:56",1
"23/09/07","02:30",0.0,22.2,90.8,1002.4,330.1,1.1,2.2,341.3,0.00,20.7,25.0,"02:22:24",1
"23/09/07","02:40",0.0,22.1,90.8,1002.4,318.6,1.0,1.7,335.2,0.00,20.6,24.8,"02:37:52",1
"23/09/07","02:50",0.0,21.7,90.8,1002.4,302.3,0.6,1.1,318.3,0.00,20.2,24.7,"02:48:16",1
"23/09/07","03:00",0.0,21.5,91.0,1002.6,325.2,1.1,2.1,316.6,0.00,20.0,24.9,"02:59:04",1
"23/09/07","03:10",0.0,21.4,91.2,1002.4,300.6,1.0,1.8,327.4,0.00,19.9,24.8,"03:08:08",1
"23/09/07","03:20",0.0,21.4,91.5,1002.6,317.4,1.0,2.1,325.4,0.00,20.0,24.8,"03:12:56",1
"23/09/07","03:30",0.0,21.4,91.7,1003.1,306.9,1.0,1.9,331.6,0.00,20.0,24.9,"03:25:20",1
"23/09/07","03:40",0.0,21.4,91.8,1002.9,325.2,0.8,1.9,326.5,0.00,20.1,24.9,"03:34:56",1
"23/09/07","03:50",0.0,21.4,92.0,1003.1,328.5,0.7,1.6,354.8,0.00,20.1,24.9,"03:45:44",1
"23/09/07","04:00",0.0,21.4,92.1,1003.1,286.5,0.7,1.1,271.7,0.00,20.1,24.5,"03:50:24",1
"23/09/07","04:10",0.0,21.4,92.3,1003.1,323.6,1.2,2.0,340.0,0.00,20.1,24.5,"04:08:40",1
"23/09/07","04:20",0.0,21.6,92.3,1003.1,324.9,1.1,1.9,333.3,0.00,20.3,24.7,"04:15:28",1
"23/09/07","04:30",0.0,21.5,92.4,1003.1,321.9,0.8,1.7,323.3,0.00,20.3,24.7,"04:26:32",1
"23/09/07","04:40",0.0,21.5,92.4,1003.4,318.2,1.1,1.6,315.2,0.00,20.3,24.7,"04:36:00",1
"23/09/07","04:50",0.0,21.3,92.5,1003.4,300.0,0.6,1.1,275.8,0.00,20.1,24.6,"04:47:44",1
"23/09/07","05:00",0.0,21.1,92.6,1003.4,314.5,0.6,1.4,326.5,0.00,19.9,24.6,"04:56:24",1
"23/09/07","05:10",0.0,21.1,92.8,1003.6,303.4,1.1,1.7,252.0,0.00,19.9,24.5,"05:02:16",1
"23/09/07","05:20",0.0,21.2,92.8,1003.6,328.3,1.2,2.6,322.9,0.00,20.0,24.6,"05:10:40",1
"23/09/07","05:30",0.0,21.1,92.8,1003.8,334.2,0.8,1.3,343.7,0.00,19.9,24.3,"05:22:56",1
"23/09/07","05:40",0.0,21.0,92.9,1003.6,299.1,0.5,1.3,340.6,0.00,19.8,24.5,"05:32:40",1
"23/09/07","05:50",0.0,20.9,93.0,1003.4,319.3,0.7,1.4,305.1,0.00,19.8,24.3,"05:44:08",1
"23/09/07","06:00",0.0,21.1,93.2,1003.6,337.1,1.5,2.2,339.5,0.00,20.0,24.6,"05:54:08",1
"23/09/07","06:10",0.0,21.2,93.3,1003.4,330.3,1.3,2.0,337.8,0.00,20.1,24.5,"06:04:56",1
"23/09/07","06:20",0.0,21.7,93.3,1003.6,322.7,1.6,3.1,339.7,0.01,20.6,24.3,"06:14:32",1
"23/09/07","06:30",0.0,22.2,93.0,1003.6,298.7,1.0,1.9,331.6,0.02,21.1,24.1,"06:28:16",1
"23/09/07","06:40",0.0,23.2,92.6,1003.8,352.5,0.6,1.6,342.5,0.03,22.0,24.4,"06:30:08",1
"23/09/07","06:50",0.0,23.9,91.2,1003.6,250.9,0.5,1.2,247.2,0.04,22.4,24.3,"06:48:24",1
"23/09/07","07:00",0.0,24.6,90.2,1003.6,111.3,0.3,1.3,79.7,0.06,22.9,24.2,"06:53:44",1
"23/09/07","07:10",0.0,25.4,87.6,1003.8,128.1,0.3,0.9,130.2,0.08,23.2,24.4,"07:01:12",1
"23/09/07","07:20",0.0,26.4,83.8,1003.8,288.7,0.3,1.2,353.3,0.10,23.5,24.3,"07:13:28",1
"23/09/07","07:30",0.0,27.1,79.1,1003.4,313.5,0.3,1.0,351.6,0.13,23.2,24.4,"07:21:12",1
"23/09/07","07:40",0.0,27.8,72.8,1002.9,8.1,0.6,1.8,0.3,0.15,22.5,24.3,"07:39:52",1
"23/09/07","07:50",0.0,28.4,68.4,1002.9,13.8,1.1,2.5,315.7,0.17,22.1,24.5,"07:44:32",1
"23/09/07","08:00",0.0,28.7,65.9,1003.4,75.9,1.1,2.7,58.6,0.20,21.7,24.5,"07:51:20",1
"23/09/07","08:10",0.0,28.9,63.9,1003.6,13.9,1.3,3.6,7.4,0.23,21.4,24.3,"08:06:08",1
"23/09/07","08:20",0.0,28.8,64.0,1003.4,359.1,1.7,3.1,337.7,0.22,21.4,24.4,"08:17:12",1
"23/09/07","08:30",0.0,29.1,64.1,1003.6,7.7,1.8,4.1,303.9,0.27,21.7,24.4,"08:20:24",1
"23/09/07","08:40",0.0,28.9,62.9,1003.6,4.8,2.0,3.7,356.9,0.20,21.2,24.3,"08:33:36",1
"23/09/07","08:50",0.0,28.9,63.6,1003.6,357.3,1.6,3.3,16.5,0.24,21.3,24.5,"08:42:24",1
"23/09/07","09:00",0.0,29.3,61.5,1003.8,358.5,1.7,4.3,330.3,0.30,21.2,24.5,"08:51:12",1
"23/09/07","09:10",0.0,29.1,62.5,1003.8,1.1,1.6,3.7,18.6,0.19,21.2,24.6,"09:06:56",1
"23/09/07","09:20",0.0,29.0,62.8,1003.6,6.5,1.8,3.3,9.7,0.20,21.2,24.7,"09:11:44",1
"23/09/07","09:30",0.0,29.3,61.3,1003.6,26.4,1.5,4.0,33.3,0.23,21.1,24.6,"09:29:52",1
"23/09/07","09:40",0.0,30.1,61.4,1004.1,29.9,1.1,3.2,355.5,0.30,21.9,24.8,"09:30:56",1
"23/09/07","09:50",0.0,30.4,59.3,1004.5,4.2,1.6,3.6,4.7,0.42,21.6,24.9,"09:48:08",1
"23/09/07","10:00",0.0,30.6,59.3,1004.3,2.4,1.7,3.6,352.3,0.42,21.8,24.8,"09:58:16",1
"23/09/07","10:10",0.0,30.4,58.4,1004.3,1.0,2.0,4.5,346.2,0.34,21.4,24.7,"10:02:16",1
"23/09/07","10:20",0.0,30.0,59.7,1004.1,0.6,2.1,3.9,352.0,0.30,21.3,24.8,"10:15:44",1
"23/09/07","10:30",0.0,30.6,58.9,1004.1,356.0,2.1,4.7,8.6,0.42,21.7,24.9,"10:28:56",1
"23/09/07","10:40",0.0,30.1,58.9,1003.8,356.9,2.1,5.2,348.8,0.23,21.2,24.9,"10:38:48",1
"23/09/07","10:50",0.0,29.9,60.1,1003.4,351.6,2.0,5.1,348.5,0.22,21.4,24.9,"10:46:00",1
"23/09/07","11:00",0.0,30.1,59.7,1003.6,349.3,2.3,5.2,325.6,0.32,21.4,24.9,"10:56:40",1
"23/09/07","11:10",0.0,30.4,59.3,1003.6,358.2,2.1,4.3,355.7,0.29,21.6,25.0,"11:06:08",1
"23/09/07","11:20",0.0,29.9,58.9,1003.1,349.8,2.1,3.9,358.5,0.18,21.0,25.1,"11:11:12",1
"23/09/07","11:30",0.0,30.2,59.6,1003.1,358.6,2.0,4.1,24.4,0.20,21.5,25.1,"11:28:00",1
"23/09/07","11:40",0.0,30.1,59.0,1002.9,351.8,1.6,4.5,12.3,0.13,21.2,25.0,"11:30:24",1
"23/09/07","11:50",0.0,29.8,60.8,1002.9,357.1,1.6,4.3,357.0,0.06,21.5,25.1,"11:40:48",1
"23/09/07","12:00",0.0,29.3,62.4,1002.6,5.6,2.1,7.1,350.2,0.05,21.4,25.3,"11:58:24",1
"23/09/07","12:10",0.0,29.3,62.4,1002.6,77.6,0.6,1.8,125.3,0.05,21.4,25.4,"12:04:56",1
"23/09/07","12:20",0.0,29.3,63.0,1002.2,332.3,0.6,1.8,357.4,0.08,21.6,25.2,"12:17:44",1
"23/09/07","12:30",0.0,29.7,64.5,1002.2,356.1,1.0,2.2,335.1,0.10,22.3,25.2,"12:23:04",1
"23/09/07","12:40",0.0,29.6,64.0,1002.2,352.0,1.7,3.2,2.5,0.15,22.1,25.2,"12:34:00",1
"23/09/07","12:50",0.0,29.3,64.4,1002.4,348.8,2.0,4.4,348.6,0.12,21.9,25.3,"12:41:20",1
"23/09/07","13:00",0.0,29.2,65.0,1002.4,341.1,1.7,4.5,346.4,0.10,22.0,25.1,"12:58:32",1
"23/09/07","13:10",0.0,29.0,66.2,1002.2,0.0,1.3,2.9,344.6,0.05,22.1,25.2,"13:01:44",1
"23/09/07","13:20",0.0,28.7,66.0,1001.9,352.7,1.3,3.5,357.3,0.03,21.8,25.4,"13:19:04",1
"23/09/07","13:30",0.0,28.6,66.5,1001.5,5.4,1.5,2.8,349.7,0.03,21.8,25.4,"13:23:28",1
"23/09/07","13:40",0.0,28.5,67.6,1001.0,351.5,1.2,2.8,352.4,0.02,22.0,25.3,"13:33:04",1
"23/09/07","13:50",0.0,28.3,68.8,1000.8,349.2,1.6,3.6,346.7,0.02,22.1,25.2,"13:49:44",1
"23/09/07","14:00",0.0,28.2,70.0,1001.7,345.7,1.3,2.6,343.0,0.02,22.2,25.2,"13:50:08",1
"23/09/07","14:10",0.0,28.0,70.1,1001.2,348.9,1.6,3.7,350.5,0.02,22.1,25.5,"14:06:08",1
"23/09/07","14:20",0.0,28.1,70.2,1001.7,339.9,1.6,3.6,342.7,0.04,22.2,25.2,"14:19:12",1
"23/09/07","14:30",0.0,28.4,70.1,1001.5,343.9,2.0,4.3,339.7,0.10,22.5,25.1,"14:24:08",1
"23/09/07","14:40",0.0,28.8,69.7,1001.2,346.9,2.5,4.9,343.4,0.13,22.8,25.3,"14:38:48",1
"23/09/07","14:50",0.0,28.8,69.1,1001.2,349.5,2.3,5.4,345.7,0.11,22.6,25.3,"14:48:32",1
"23/09/07","15:00",0.0,28.9,69.3,1001.2,344.8,2.1,4.2,1.8,0.10,22.8,25.2,"14:51:20",1
"23/09/07","15:10",0.0,28.9,69.3,1001.2,345.3,1.8,3.6,356.3,0.10,22.8,25.4,"15:01:36",1
"23/09/07","15:20",0.0,29.1,69.6,1001.2,349.4,2.0,3.3,353.1,0.13,23.0,25.4,"15:15:52",1
"23/09/07","15:30",0.0,29.3,68.7,1001.5,349.5,2.1,4.5,340.8,0.13,23.0,25.2,"15:20:24",1
"23/09/07","15:40",0.0,29.1,68.8,1001.7,347.7,2.3,5.0,356.2,0.07,22.8,25.1,"15:39:20",1
"23/09/07","15:50",0.0,28.6,69.5,1001.5,348.1,2.7,5.7,346.7,0.03,22.5,25.4,"15:49:28",1
"23/09/07","16:00",0.0,28.3,70.2,1001.2,348.7,2.8,6.8,342.1,0.02,22.4,25.3,"15:55:28",1
"23/09/07","16:10",0.0,28.1,71.2,1001.9,345.5,2.6,5.8,330.6,0.02,22.4,25.4,"16:00:40",1
"23/09/07","16:20",0.0,28.0,72.2,1001.7,350.5,2.2,4.5,340.0,0.04,22.6,25.4,"16:12:24",1
"23/09/07","16:30",0.0,27.8,72.5,1001.7,344.9,2.6,5.6,344.4,0.02,22.4,25.5,"16:20:08",1
"23/09/07","16:40",0.0,27.7,73.2,1001.9,349.0,2.2,5.2,349.7,0.01,22.5,25.3,"16:36:40",1
"23/09/07","16:50",0.0,27.5,73.8,1002.2,350.4,2.0,3.7,352.2,0.00,22.4,25.3,"16:48:40",1
"23/09/07","17:00",0.0,27.5,73.8,1002.4,349.7,2.1,4.9,344.9,0.01,22.4,25.3,"16:50:08",1
"23/09/07","17:10",0.0,27.6,74.1,1002.2,348.0,1.6,2.8,350.2,0.00,22.6,25.4,"17:00:16",1
"23/09/07","17:20",0.0,27.4,74.5,1002.2,340.7,1.6,2.7,343.1,0.00,22.5,25.4,"17:11:04",1
"23/09/07","17:30",0.0,27.3,75.0,1002.4,341.0,1.8,4.0,335.9,0.00,22.5,25.4,"17:22:16",1
"23/09/07","17:40",0.0,27.2,76.0,1002.2,343.7,2.0,5.1,335.5,0.00,22.6,25.3,"17:31:12",1
"23/09/07","17:50",0.0,26.8,77.9,1002.6,344.4,1.8,2.9,335.6,0.00,22.7,25.3,"17:42:00",1
"23/09/07","18:00",1.8,26.1,81.1,1002.6,329.6,1.1,2.4,339.0,0.00,22.6,25.3,"17:50:32",1
"23/09/07","18:10",0.4,25.4,84.2,1002.9,331.4,1.2,2.9,345.2,0.00,22.6,25.4,"18:03:36",1
"23/09/07","18:20",2.2,25.2,86.2,1003.1,345.3,0.8,1.6,339.4,0.00,22.8,25.3,"18:10:16",1
"23/09/07","18:30",0.2,24.8,87.6,1003.4,314.5,0.8,1.4,357.1,0.00,22.6,25.3,"18:23:52",1
"23/09/07","18:40",0.4,24.7,88.5,1003.4,17.4,0.3,1.0,355.5,0.00,22.7,25.3,"18:30:40",1
"23/09/07","18:50",0.0,24.5,89.1,1003.8,9.7,0.3,1.6,58.3,0.00,22.6,25.4,"18:41:04",1
"23/09/07","19:00",0.0,24.4,89.6,1003.8,328.7,0.5,1.4,344.4,0.00,22.6,25.3,"18:53:52",1
"23/09/07","19:10",0.0,24.4,90.1,1004.3,257.3,0.6,1.6,206.4,0.00,22.7,25.2,"19:05:44",1
"23/09/07","19:20",0.0,24.4,90.7,1004.1,312.1,0.8,1.4,342.5,0.00,22.8,25.2,"19:14:16",1
"23/09/07","19:30",0.0,24.2,91.1,1003.8,328.8,1.0,1.8,316.8,0.00,22.7,25.2,"19:27:28",1
"23/09/07","19:40",0.0,24.1,91.5,1004.3,313.9,1.1,2.1,350.8,0.00,22.7,25.3,"19:32:16",1
"23/09/07","19:50",0.0,24.0,91.8,1004.3,291.3,0.8,2.2,329.8,0.00,22.6,25.1,"19:41:28",1
"23/09/07","20:00",0.0,23.9,92.1,1004.3,276.4,1.0,1.7,325.1,0.00,22.6,25.1,"19:57:28",1
"23/09/07","20:10",0.0,23.8,92.3,1004.3,273.9,1.2,2.0,276.6,0.00,22.5,25.3,"20:09:04",1
"23/09/07","20:20",0.0,23.6,92.6,1004.8,304.7,1.3,2.4,350.5,0.00,22.4,25.2,"20:11:52",1
"23/09/07","20:30",0.2,23.7,92.7,1004.5,290.6,0.8,1.6,311.8,0.00,22.5,25.0,"20:28:08",1
"23/09/07","20:40",0.4,23.6,92.8,1004.5,332.4,0.7,2.0,311.7,0.00,22.4,25.3,"20:34:32",1
"23/09/07","20:50",1.0,23.5,93.0,1004.8,334.4,1.0,2.0,353.5,0.00,22.3,25.2,"20:48:24",1
"23/09/07","21:00",0.2,23.5,93.2,1004.8,327.0,1.2,2.5,323.9,0.00,22.4,25.0,"20:58:16",1
"23/09/07","21:10",0.4,23.3,93.3,1004.8,323.6,0.8,3.5,329.6,0.00,22.2,25.0,"21:02:08",1
"23/09/07","21:20",1.0,22.8,93.5,1004.5,328.8,1.6,3.5,328.8,0.00,21.7,25.0,"21:18:24",1
"23/09/07","21:30",0.2,22.6,93.6,1004.8,318.1,1.6,3.3,322.0,0.00,21.6,24.8,"21:22:08",1
"23/09/07","21:40",0.2,22.8,93.6,1004.8,330.9,1.8,3.5,344.6,0.00,21.8,25.1,"21:39:36",1
"23/09/07","21:50",1.0,22.6,93.7,1004.3,335.7,2.5,5.1,335.5,0.00,21.6,24.6,"21:43:52",1
"23/09/07","22:00",0.2,22.4,93.8,1004.5,320.9,2.0,5.2,309.8,0.00,21.4,24.7,"21:51:44",1
"23/09/07","22:10",0.0,22.5,93.8,1005.0,241.8,1.3,2.6,248.5,0.00,21.5,24.9,"22:08:56",1
"23/09/07","22:20",0.0,22.5,93.8,1005.2,249.7,1.2,3.4,238.6,0.00,21.5,24.9,"22:12:24",1
"23/09/07","22:30",0.2,22.6,93.8,1005.2,305.5,0.7,1.4,330.3,0.00,21.6,24.7,"22:21:36",1
"23/09/07","22:40",0.6,22.5,93.9,1004.8,308.9,1.0,1.8,324.5,0.00,21.5,24.8,"22:32:32",1
"23/09/07","22:50",0.6,22.6,94.0,1004.5,300.0,1.1,1.9,325.4,0.00,21.6,25.0,"22:45:20",1
"23/09/07","23:00",0.2,22.6,94.0,1004.5,277.6,0.8,1.6,257.6,0.00,21.6,24.7,"22:57:04",1
"23/09/07","23:10",0.0,22.5,94.2,1004.3,260.1,1.2,2.6,236.9,0.00,21.6,24.7,"23:05:28",1
"23/09/07","23:20",0.0,22.4,94.2,1004.3,274.2,0.8,1.9,261.2,0.00,21.5,24.6,"23:13:04",1
"23/09/07","23:30",0.0,22.4,94.3,1004.8,261.4,1.0,1.8,317.4,0.00,21.5,24.7,"23:20:08",1
"23/09/07","23:40",0.0,22.5,94.4,1004.8,259.5,1.0,1.7,241.6,0.00,21.6,24.7,"23:34:08",1
"23/09/07","23:50",0.0,22.5,94.5,1004.5,286.7,1.1,2.4,304.4,0.00,21.6,24.6,"23:44:08",1
"23/09/07","24:00",0.0,22.5,94.5,1004.5,309.2,1.2,2.4,328.9,0.00,21.6,24.6,"23:53:28",1
